Lid_Strength_Index
4 4 4 3 3 4 4 3 2 3 3 2 1 1 1 1 -0 -0 0 0 1 0 -0 0 -1 -1 2 5 5 1 1 1 1 2 4 5 6 6 8 7 6 8 7 7 6 6 6
4 4 4 4 3 3 3 3 3 3 3 3 1 0 -0 1 -1 -1 0 0 0 -0 -0 0 -1 -1 2 8 1 1 1 2 2 3 4 3 5 5 7 7 8 6 6 6 6 6 6
5 3 4 3 2 3 3 3 3 3 3 2 0 -1 -1 -0 -1 -1 -1 0 0 -0 -0 0 -0 -0 4 5 -0 0 1 2 2 3 5 3 4 5 6 8 6 7 9 7 7 6 7
5 3 3 2 2 2 2 2 2 2 2 0 -1 -2 -2 -1 -2 -1 -1 -0 -0 -1 -1 -0 -1 1 6 0 -1 1 2 2 2 2 3 3 3 5 6 6 8 10 10 13 8 7 6
4 2 2 2 2 2 2 2 2 2 1 -1 -2 -2 -2 -2 -2 -2 -1 -1 -0 -1 -1 -1 1 2 7 -1 2 1 2 4 3 2 2 3 4 6 7 10 12 11 15 14 11 8 7
4 2 2 2 1 2 2 2 2 1 -0 -2 -2 -2 -1 -1 -1 -1 -1 -1 -1 -1 -1 -1 0 5 5 5 2 3 2 2 4 4 5 5 7 10 10 11 17 15 15 13 13 9 9
4 2 2 2 2 2 2 2 2 1 -1 -2 -2 -1 -1 -1 -1 -1 -1 -0 3 4 3 6 6 6 5 2 1 3 2 3 4 6 10 8 11 14 12 10 10 11 13 14 11 10 9
4 3 2 2 2 2 2 2 2 0 -2 -2 -2 -1 -1 -1 -1 -1 -1 3 4 3 7 4 4 4 3 2 6 4 1 6 7 10 8 10 13 10 9 9 11 12 13 13 11 10 11
4 2 2 2 2 2 2 2 1 -0 -1 -2 -2 -1 -1 -1 -1 -1 1 2 -1 1 7 6 4 5 4 3 6 6 4 5 8 10 10 12 10 8 9 11 12 12 13 13 13 11 10
3 2 2 2 2 2 2 1 1 -1 -2 -2 -1 -1 -1 -2 1 0 2 -0 -1 0 10 10 8 5 4 4 7 4 3 5 8 10 9 10 8 9 10 11 11 14 10 11 12 13 16
4 2 2 2 2 2 2 1 0 -1 -2 -2 -2 -2 -2 -1 1 2 1 -1 -1 2 18 10 8 2 4 7 6 6 3 5 9 9 9 11 10 10 11 10 9 12 9 11 11 14 14
4 2 2 2 2 2 1 1 0 -2 -2 -2 -2 -2 -1 -0 -0 0 -1 -1 1 11 18 11 7 8 8 7 7 6 6 4 6 9 9 9 7 8 9 8 8 8 11 11 12 13 19
4 2 2 2 2 2 2 2 0 -2 -1 -2 -2 -1 -0 -0 3 -1 -0 3 12 15 10 12 11 8 9 10 9 8 9 10 12 15 15 11 11 8 8 10 9 10 13 19 20 20 20
3 2 2 2 2 2 2 1 -0 -1 -1 -1 -1 -0 1 1 -1 -0 1 9 16 15 13 9 10 10 11 9 9 9 11 12 10 10 14 15 17 11 8 10 12 12 13 16 21 21 18
3 2 2 2 2 2 2 1 -1 -2 -2 -1 -0 2 2 2 0 -0 6 13 13 13 11 11 10 13 13 10 10 11 11 12 10 10 14 16 15 9 9 9 9 12 15 10 15 17 17
3 3 2 2 2 2 1 0 -1 -2 -2 0 2 3 4 3 0 3 9 12 11 9 9 9 13 11 14 13 12 12 12 10 10 8 8 11 16 11 10 9 9 11 9 16 15 21 21
4 2 2 2 2 2 2 0 -1 -2 -1 1 3 5 4 3 3 7 11 11 10 7 7 10 11 12 12 13 12 13 13 10 9 9 8 10 12 14 11 13 14 13 14 13 13 15 19
3 2 2 2 2 2 2 1 -1 -1 -0 2 4 10 4 4 9 12 12 11 9 9 8 8 9 10 11 11 13 12 13 11 7 8 11 9 12 16 14 11 11 11 13 12 16 18 16
3 2 2 2 2 2 1 0 -0 -1 0 3 6 6 5 5 11 12 11 10 9 10 10 10 10 9 9 11 13 12 11 8 8 9 11 10 13 17 16 13 11 13 12 12 13 13 16
3 1 2 2 2 2 2 1 -1 -1 1 4 6 10 8 8 10 10 12 12 11 9 10 10 11 10 10 11 10 12 11 9 8 8 7 8 12 13 15 14 12 14 13 12 12 16 14
3 1 1 2 2 2 2 1 -1 -1 2 4 8 10 12 10 10 11 11 12 12 13 11 10 11 12 12 13 12 12 11 10 8 8 8 9 14 13 13 12 11 12 13 13 14 13 15
3 1 1 1 2 2 2 1 -0 -1 2 5 8 9 11 13 12 11 13 13 13 13 12 12 12 12 11 12 12 13 11 11 11 9 10 9 14 13 15 13 12 13 12 12 12 12 13
2 1 1 2 2 2 2 1 0 -1 2 6 8 8 6 12 12 11 12 12 12 11 12 11 11 12 13 12 11 10 9 8 9 10 11 11 13 14 16 14 13 15 13 12 12 11 11
2 1 1 2 2 2 3 2 1 -0 3 4 6 7 7 11 11 11 12 11 12 12 13 11 11 11 11 9 10 11 11 10 10 11 9 12 13 13 15 16 19 13 13 10 11 10 9
2 1 1 2 3 3 3 3 2 1 3 4 6 7 8 11 11 12 12 12 12 12 12 12 11 10 10 12 14 15 14 12 14 13 12 11 11 15 16 16 14 13 14 12 12 11 8
3 1 2 2 2 3 3 3 2 2 4 5 6 7 7 9 10 10 11 12 12 13 13 12 11 10 11 14 16 18 18 19 16 14 12 11 11 13 16 17 19 12 12 10 9 13 10
3 1 2 2 2 3 3 3 3 3 4 5 7 8 7 10 10 11 10 11 12 14 13 15 13 12 12 15 18 18 19 22 17 16 15 14 13 15 15 16 14 12 12 11 14 12 12
3 1 2 2 2 3 3 3 3 3 5 6 9 7 7 10 11 10 11 11 12 12 12 14 13 13 14 16 17 18 18 19 19 17 16 14 15 15 17 16 17 13 13 12 11 12 12
3 2 2 2 3 3 3 3 3 4 5 7 9 8 7 9 10 8 9 8 9 12 11 13 13 15 13 16 18 19 19 20 21 17 17 17 13 13 13 12 13 13 11 11 11 12 12